owner,sensor,date,latitude,longitude,air_temperature,qcFlag 
DISL,ioos:station:DISL:DISL:1,2012-07-01T00:00:00Z,30.2513,-88.0778,29.09,1111122 
DISL,ioos:station:DISL:DISL:1,2012-07-01T00:30:00Z,30.2513,-88.0778,28.93,1111122 
DISL,ioos:station:DISL:DISL:1,2012-07-01T01:00:00Z,30.2513,-88.0778,28.53,1111122 
DISL,ioos:station:DISL:DISL:1,2012-07-01T01:30:00Z,30.2513,-88.0778,28.39,1111122 
DISL,ioos:station:DISL:DISL:1,2012-07-01T02:00:00Z,30.2513,-88.0778,28.46,1111122 
DISL,ioos:station:DISL:DISL:1,2012-07-01T02:30:00Z,30.2513,-88.0778,28.43,1111122 
DISL,ioos:station:DISL:DISL:1,2012-07-01T03:00:00Z,30.2513,-88.0778,28.35,1111122 
DISL,ioos:station:DISL:DISL:1,2012-07-01T03:30:00Z,30.2513,-88.0778,28.33,1111122 
DISL,ioos:station:DISL:DISL:1,2012-07-01T04:00:00Z,30.2513,-88.0778,28.29,1111122 
DISL,ioos:station:DISL:DISL:1,2012-07-01T04:30:00Z,30.2513,-88.0778,28.29,1111122 
DISL,ioos:station:DISL:DISL:1,2012-07-01T05:00:00Z,30.2513,-88.0778,28.28,1111122 
DISL,ioos:station:DISL:DISL:1,2012-07-01T05:30:00Z,30.2513,-88.0778,28.18,1111122 
DISL,ioos:station:DISL:DISL:1,2012-07-01T06:00:00Z,30.2513,-88.0778,28.05,1111122 
DISL,ioos:station:DISL:DISL:1,2012-07-01T06:30:00Z,30.2513,-88.0778,27.98,1111122 
DISL,ioos:station:DISL:DISL:1,2012-07-01T07:00:00Z,30.2513,-88.0778,27.98,1111122 
DISL,ioos:station:DISL:DISL:1,2012-07-01T07:30:00Z,30.2513,-88.0778,28.06,1111122 
DISL,ioos:station:DISL:DISL:1,2012-07-01T08:00:00Z,30.2513,-88.0778,28.23,1111122 
DISL,ioos:station:DISL:DISL:1,2012-07-01T08:30:00Z,30.2513,-88.0778,28.19,1111122 
DISL,ioos:station:DISL:DISL:1,2012-07-01T09:00:00Z,30.2513,-88.0778,28.16,1111122 
DISL,ioos:station:DISL:DISL:1,2012-07-01T09:30:00Z,30.2513,-88.0778,28.01,1111122 
DISL,ioos:station:DISL:DISL:1,2012-07-01T10:00:00Z,30.2513,-88.0778,28.01,1111122 
DISL,ioos:station:DISL:DISL:1,2012-07-01T10:30:00Z,30.2513,-88.0778,28.02,1111122 
DISL,ioos:station:DISL:DISL:1,2012-07-01T11:00:00Z,30.2513,-88.0778,28.0,1111122 
DISL,ioos:station:DISL:DISL:1,2012-07-01T11:30:00Z,30.2513,-88.0778,28.22,1111122 
DISL,ioos:station:DISL:DISL:1,2012-07-01T12:00:00Z,30.2513,-88.0778,27.78,1111122 
DISL,ioos:station:DISL:DISL:1,2012-07-01T12:30:00Z,30.2513,-88.0778,28.04,1111122 
DISL,ioos:station:DISL:DISL:1,2012-07-01T13:00:00Z,30.2513,-88.0778,28.09,1111122 
DISL,ioos:station:DISL:DISL:1,2012-07-01T13:30:00Z,30.2513,-88.0778,28.35,1111122 
DISL,ioos:station:DISL:DISL:1,2012-07-01T14:00:00Z,30.2513,-88.0778,28.52,1111122 
DISL,ioos:station:DISL:DISL:1,2012-07-01T14:30:00Z,30.2513,-88.0778,28.65,1111122 
DISL,ioos:station:DISL:DISL:1,2012-07-01T15:00:00Z,30.2513,-88.0778,28.88,1111122 
DISL,ioos:station:DISL:DISL:1,2012-07-01T15:30:00Z,30.2513,-88.0778,29.12,1111122 
DISL,ioos:station:DISL:DISL:1,2012-07-01T16:00:00Z,30.2513,-88.0778,29.35,1111122 
DISL,ioos:station:DISL:DISL:1,2012-07-01T16:30:00Z,30.2513,-88.0778,29.87,1111122 
DISL,ioos:station:DISL:DISL:1,2012-07-01T17:00:00Z,30.2513,-88.0778,30.89,1111122 
DISL,ioos:station:DISL:DISL:1,2012-07-01T17:30:00Z,30.2513,-88.0778,30.77,1111122 
DISL,ioos:station:DISL:DISL:1,2012-07-01T18:00:00Z,30.2513,-88.0778,30.74,1111122 
DISL,ioos:station:DISL:DISL:1,2012-07-01T18:30:00Z,30.2513,-88.0778,31.08,1111122 
DISL,ioos:station:DISL:DISL:1,2012-07-01T19:00:00Z,30.2513,-88.0778,31.02,1111122 
DISL,ioos:station:DISL:DISL:1,2012-07-01T19:30:00Z,30.2513,-88.0778,30.91,1111122 
DISL,ioos:station:DISL:DISL:1,2012-07-01T20:00:00Z,30.2513,-88.0778,31.2,1111122 
DISL,ioos:station:DISL:DISL:1,2012-07-01T20:30:00Z,30.2513,-88.0778,31.26,1111122 
DISL,ioos:station:DISL:DISL:1,2012-07-01T21:00:00Z,30.2513,-88.0778,31.19,1111122 
DISL,ioos:station:DISL:DISL:1,2012-07-01T21:30:00Z,30.2513,-88.0778,30.96,1111122 
DISL,ioos:station:DISL:DISL:1,2012-07-01T22:00:00Z,30.2513,-88.0778,30.98,1111122 
DISL,ioos:station:DISL:DISL:1,2012-07-01T22:30:00Z,30.2513,-88.0778,30.46,1111122 
DISL,ioos:station:DISL:DISL:1,2012-07-01T23:00:00Z,30.2513,-88.0778,30.4,1111122 
DISL,ioos:station:DISL:DISL:1,2012-07-01T23:30:00Z,30.2513,-88.0778,30.13,1111122 
DISL,ioos:station:DISL:DISL:1,2012-07-02T00:00:00Z,30.2513,-88.0778,29.91,1111122 
DISL,ioos:station:DISL:DISL:1,2012-07-02T00:30:00Z,30.2513,-88.0778,29.69,1111122 
DISL,ioos:station:DISL:DISL:1,2012-07-02T01:00:00Z,30.2513,-88.0778,29.55,1111122 
DISL,ioos:station:DISL:DISL:1,2012-07-02T01:30:00Z,30.2513,-88.0778,29.7,1111122 
DISL,ioos:station:DISL:DISL:1,2012-07-02T02:00:00Z,30.2513,-88.0778,29.61,1111122 
DISL,ioos:station:DISL:DISL:1,2012-07-02T02:30:00Z,30.2513,-88.0778,29.71,1111122 
DISL,ioos:station:DISL:DISL:1,2012-07-02T03:00:00Z,30.2513,-88.0778,29.52,1111122 
DISL,ioos:station:DISL:DISL:1,2012-07-02T03:30:00Z,30.2513,-88.0778,29.52,1111122 
DISL,ioos:station:DISL:DISL:1,2012-07-02T04:00:00Z,30.2513,-88.0778,29.4,1111122 
DISL,ioos:station:DISL:DISL:1,2012-07-02T04:30:00Z,30.2513,-88.0778,29.32,1111122 
DISL,ioos:station:DISL:DISL:1,2012-07-02T05:00:00Z,30.2513,-88.0778,29.23,1111122 
DISL,ioos:station:DISL:DISL:1,2012-07-02T05:30:00Z,30.2513,-88.0778,29.15,1111122 
DISL,ioos:station:DISL:DISL:1,2012-07-02T06:00:00Z,30.2513,-88.0778,29.11,1111122 
DISL,ioos:station:DISL:DISL:1,2012-07-02T06:30:00Z,30.2513,-88.0778,29.14,1111122 
DISL,ioos:station:DISL:DISL:1,2012-07-02T07:00:00Z,30.2513,-88.0778,29.07,1111122 
DISL,ioos:station:DISL:DISL:1,2012-07-02T07:30:00Z,30.2513,-88.0778,28.98,1111122 
DISL,ioos:station:DISL:DISL:1,2012-07-02T08:00:00Z,30.2513,-88.0778,28.86,1111122 
DISL,ioos:station:DISL:DISL:1,2012-07-02T08:30:00Z,30.2513,-88.0778,28.84,1111122 
DISL,ioos:station:DISL:DISL:1,2012-07-02T09:00:00Z,30.2513,-88.0778,28.79,1111122 
DISL,ioos:station:DISL:DISL:1,2012-07-02T09:30:00Z,30.2513,-88.0778,28.76,1111122 
DISL,ioos:station:DISL:DISL:1,2012-07-02T10:00:00Z,30.2513,-88.0778,29.54,1111122 
DISL,ioos:station:DISL:DISL:1,2012-07-02T10:30:00Z,30.2513,-88.0778,29.55,1111122 
DISL,ioos:station:DISL:DISL:1,2012-07-02T11:00:00Z,30.2513,-88.0778,29.1,1111122 
DISL,ioos:station:DISL:DISL:1,2012-07-02T11:30:00Z,30.2513,-88.0778,28.71,1111122 
DISL,ioos:station:DISL:DISL:1,2012-07-02T12:00:00Z,30.2513,-88.0778,28.39,1111122 
DISL,ioos:station:DISL:DISL:1,2012-07-02T12:30:00Z,30.2513,-88.0778,27.98,1111122 
DISL,ioos:station:DISL:DISL:1,2012-07-02T13:00:00Z,30.2513,-88.0778,26.85,1111122 
DISL,ioos:station:DISL:DISL:1,2012-07-02T13:30:00Z,30.2513,-88.0778,28.26,1111122 
DISL,ioos:station:DISL:DISL:1,2012-07-02T14:00:00Z,30.2513,-88.0778,29.27,1111122 
DISL,ioos:station:DISL:DISL:1,2012-07-02T14:30:00Z,30.2513,-88.0778,28.88,1111122 
DISL,ioos:station:DISL:DISL:1,2012-07-02T15:00:00Z,30.2513,-88.0778,28.87,1111122 
DISL,ioos:station:DISL:DISL:1,2012-07-02T15:30:00Z,30.2513,-88.0778,29.81,1111122 
DISL,ioos:station:DISL:DISL:1,2012-07-02T16:00:00Z,30.2513,-88.0778,29.34,1111122 
DISL,ioos:station:DISL:DISL:1,2012-07-02T16:30:00Z,30.2513,-88.0778,29.99,1111122 
DISL,ioos:station:DISL:DISL:1,2012-07-02T17:00:00Z,30.2513,-88.0778,29.76,1111122 
DISL,ioos:station:DISL:DISL:1,2012-07-02T17:30:00Z,30.2513,-88.0778,29.08,1111122 
DISL,ioos:station:DISL:DISL:1,2012-07-02T18:00:00Z,30.2513,-88.0778,29.89,1111122 
DISL,ioos:station:DISL:DISL:1,2012-07-02T18:30:00Z,30.2513,-88.0778,30.27,1111122 
DISL,ioos:station:DISL:DISL:1,2012-07-02T19:00:00Z,30.2513,-88.0778,30.52,1111122 
DISL,ioos:station:DISL:DISL:1,2012-07-02T19:30:00Z,30.2513,-88.0778,30.52,1111122 
DISL,ioos:station:DISL:DISL:1,2012-07-02T20:00:00Z,30.2513,-88.0778,30.93,1111122 
DISL,ioos:station:DISL:DISL:1,2012-07-02T20:30:00Z,30.2513,-88.0778,30.55,1111122 
DISL,ioos:station:DISL:DISL:1,2012-07-02T21:00:00Z,30.2513,-88.0778,31.13,1111122 
DISL,ioos:station:DISL:DISL:1,2012-07-02T21:30:00Z,30.2513,-88.0778,28.16,1111122 
DISL,ioos:station:DISL:DISL:1,2012-07-02T22:00:00Z,30.2513,-88.0778,27.29,1111122 
DISL,ioos:station:DISL:DISL:1,2012-07-02T22:30:00Z,30.2513,-88.0778,25.58,1111122 
DISL,ioos:station:DISL:DISL:1,2012-07-02T23:00:00Z,30.2513,-88.0778,26.77,1111122 
DISL,ioos:station:DISL:DISL:1,2012-07-02T23:30:00Z,30.2513,-88.0778,28.15,1111122 
DISL,ioos:station:DISL:DISL:1,2012-07-03T00:00:00Z,30.2513,-88.0778,28.63,1111122 
DISL,ioos:station:DISL:DISL:1,2012-07-03T00:30:00Z,30.2513,-88.0778,28.32,1111122 
DISL,ioos:station:DISL:DISL:1,2012-07-03T01:00:00Z,30.2513,-88.0778,28.55,1111122 
DISL,ioos:station:DISL:DISL:1,2012-07-03T01:30:00Z,30.2513,-88.0778,28.19,1111122 
DISL,ioos:station:DISL:DISL:1,2012-07-03T02:00:00Z,30.2513,-88.0778,28.43,1111122 
DISL,ioos:station:DISL:DISL:1,2012-07-03T02:30:00Z,30.2513,-88.0778,28.42,1111122 
DISL,ioos:station:DISL:DISL:1,2012-07-03T03:00:00Z,30.2513,-88.0778,28.43,1111122 
DISL,ioos:station:DISL:DISL:1,2012-07-03T03:30:00Z,30.2513,-88.0778,28.23,1111122 
DISL,ioos:station:DISL:DISL:1,2012-07-03T04:00:00Z,30.2513,-88.0778,28.22,1111122 
DISL,ioos:station:DISL:DISL:1,2012-07-03T04:30:00Z,30.2513,-88.0778,28.13,1111122 
DISL,ioos:station:DISL:DISL:1,2012-07-03T05:00:00Z,30.2513,-88.0778,28.5,1111122 
DISL,ioos:station:DISL:DISL:1,2012-07-03T05:30:00Z,30.2513,-88.0778,28.39,1111122 
DISL,ioos:station:DISL:DISL:1,2012-07-03T06:00:00Z,30.2513,-88.0778,28.3,1111122 
DISL,ioos:station:DISL:DISL:1,2012-07-03T06:30:00Z,30.2513,-88.0778,28.32,1111122 
DISL,ioos:station:DISL:DISL:1,2012-07-03T07:00:00Z,30.2513,-88.0778,28.28,1111122 
DISL,ioos:station:DISL:DISL:1,2012-07-03T07:30:00Z,30.2513,-88.0778,28.28,1111122 
DISL,ioos:station:DISL:DISL:1,2012-07-03T08:00:00Z,30.2513,-88.0778,28.29,1111122 
DISL,ioos:station:DISL:DISL:1,2012-07-03T08:30:00Z,30.2513,-88.0778,28.25,1111122 
DISL,ioos:station:DISL:DISL:1,2012-07-03T09:00:00Z,30.2513,-88.0778,28.06,1111122 
DISL,ioos:station:DISL:DISL:1,2012-07-03T09:30:00Z,30.2513,-88.0778,27.95,1111122 
DISL,ioos:station:DISL:DISL:1,2012-07-03T10:00:00Z,30.2513,-88.0778,27.84,1111122 
DISL,ioos:station:DISL:DISL:1,2012-07-03T10:30:00Z,30.2513,-88.0778,27.87,1111122 
DISL,ioos:station:DISL:DISL:1,2012-07-03T11:00:00Z,30.2513,-88.0778,27.76,1111122 
DISL,ioos:station:DISL:DISL:1,2012-07-03T11:30:00Z,30.2513,-88.0778,28.26,1111122 
DISL,ioos:station:DISL:DISL:1,2012-07-03T12:00:00Z,30.2513,-88.0778,28.25,1111122 
DISL,ioos:station:DISL:DISL:1,2012-07-03T12:30:00Z,30.2513,-88.0778,28.32,1111122 
DISL,ioos:station:DISL:DISL:1,2012-07-03T13:00:00Z,30.2513,-88.0778,28.31,1111122 
DISL,ioos:station:DISL:DISL:1,2012-07-03T13:30:00Z,30.2513,-88.0778,28.22,1111122 
DISL,ioos:station:DISL:DISL:1,2012-07-03T14:00:00Z,30.2513,-88.0778,28.46,1111122 
DISL,ioos:station:DISL:DISL:1,2012-07-03T14:30:00Z,30.2513,-88.0778,28.55,1111122 
DISL,ioos:station:DISL:DISL:1,2012-07-03T15:00:00Z,30.2513,-88.0778,28.82,1111122 
DISL,ioos:station:DISL:DISL:1,2012-07-03T15:30:00Z,30.2513,-88.0778,29.25,1111122 
DISL,ioos:station:DISL:DISL:1,2012-07-03T16:00:00Z,30.2513,-88.0778,29.57,1111122 
DISL,ioos:station:DISL:DISL:1,2012-07-03T16:30:00Z,30.2513,-88.0778,29.66,1111122 
DISL,ioos:station:DISL:DISL:1,2012-07-03T17:00:00Z,30.2513,-88.0778,29.85,1111122 
DISL,ioos:station:DISL:DISL:1,2012-07-03T17:30:00Z,30.2513,-88.0778,30.03,1111122 
DISL,ioos:station:DISL:DISL:1,2012-07-03T18:00:00Z,30.2513,-88.0778,30.5,1111122 
DISL,ioos:station:DISL:DISL:1,2012-07-03T18:30:00Z,30.2513,-88.0778,30.22,1111122 
DISL,ioos:station:DISL:DISL:1,2012-07-03T19:00:00Z,30.2513,-88.0778,31.2,1111122 
DISL,ioos:station:DISL:DISL:1,2012-07-03T19:30:00Z,30.2513,-88.0778,32.11,1111122 
DISL,ioos:station:DISL:DISL:1,2012-07-03T20:00:00Z,30.2513,-88.0778,31.43,1111122 
DISL,ioos:station:DISL:DISL:1,2012-07-03T20:30:00Z,30.2513,-88.0778,31.45,1111122 
DISL,ioos:station:DISL:DISL:1,2012-07-03T21:00:00Z,30.2513,-88.0778,31.21,1111122 
DISL,ioos:station:DISL:DISL:1,2012-07-03T21:30:00Z,30.2513,-88.0778,31.07,1111122 
DISL,ioos:station:DISL:DISL:1,2012-07-03T22:00:00Z,30.2513,-88.0778,31.03,1111122 
DISL,ioos:station:DISL:DISL:1,2012-07-03T22:30:00Z,30.2513,-88.0778,28.66,1111122 
DISL,ioos:station:DISL:DISL:1,2012-07-03T23:00:00Z,30.2513,-88.0778,28.06,1111122 
DISL,ioos:station:DISL:DISL:1,2012-07-03T23:30:00Z,30.2513,-88.0778,28.55,1111122 
DISL,ioos:station:DISL:DISL:1,2012-07-04T00:00:00Z,30.2513,-88.0778,28.14,1111122 
DISL,ioos:station:DISL:DISL:1,2012-07-04T00:30:00Z,30.2513,-88.0778,27.91,1111122 
DISL,ioos:station:DISL:DISL:1,2012-07-04T01:00:00Z,30.2513,-88.0778,27.4,1111122 
DISL,ioos:station:DISL:DISL:1,2012-07-04T01:30:00Z,30.2513,-88.0778,27.9,1111122 
DISL,ioos:station:DISL:DISL:1,2012-07-04T02:00:00Z,30.2513,-88.0778,27.94,1111122 
DISL,ioos:station:DISL:DISL:1,2012-07-04T02:30:00Z,30.2513,-88.0778,28.68,1111122 
DISL,ioos:station:DISL:DISL:1,2012-07-04T03:00:00Z,30.2513,-88.0778,28.98,1111122 
DISL,ioos:station:DISL:DISL:1,2012-07-04T03:30:00Z,30.2513,-88.0778,28.98,1111122 
DISL,ioos:station:DISL:DISL:1,2012-07-04T04:00:00Z,30.2513,-88.0778,29.07,1111122 
DISL,ioos:station:DISL:DISL:1,2012-07-04T04:30:00Z,30.2513,-88.0778,28.23,1111122 
DISL,ioos:station:DISL:DISL:1,2012-07-04T05:00:00Z,30.2513,-88.0778,27.58,1111122 
DISL,ioos:station:DISL:DISL:1,2012-07-04T05:30:00Z,30.2513,-88.0778,27.37,1111122 
DISL,ioos:station:DISL:DISL:1,2012-07-04T06:00:00Z,30.2513,-88.0778,27.33,1111122 
DISL,ioos:station:DISL:DISL:1,2012-07-04T06:30:00Z,30.2513,-88.0778,27.05,1111122 
DISL,ioos:station:DISL:DISL:1,2012-07-04T07:00:00Z,30.2513,-88.0778,27.49,1111122 
DISL,ioos:station:DISL:DISL:1,2012-07-04T07:30:00Z,30.2513,-88.0778,27.35,1111122 
DISL,ioos:station:DISL:DISL:1,2012-07-04T08:00:00Z,30.2513,-88.0778,27.22,1111122 
DISL,ioos:station:DISL:DISL:1,2012-07-04T08:30:00Z,30.2513,-88.0778,27.51,1111122 
DISL,ioos:station:DISL:DISL:1,2012-07-04T09:00:00Z,30.2513,-88.0778,27.69,1111122 
DISL,ioos:station:DISL:DISL:1,2012-07-04T09:30:00Z,30.2513,-88.0778,27.83,1111122 
DISL,ioos:station:DISL:DISL:1,2012-07-04T10:00:00Z,30.2513,-88.0778,27.85,1111122 
DISL,ioos:station:DISL:DISL:1,2012-07-04T10:30:00Z,30.2513,-88.0778,27.8,1111122 
DISL,ioos:station:DISL:DISL:1,2012-07-04T11:00:00Z,30.2513,-88.0778,27.73,1111122 
DISL,ioos:station:DISL:DISL:1,2012-07-04T11:30:00Z,30.2513,-88.0778,27.99,1111122 
DISL,ioos:station:DISL:DISL:1,2012-07-04T12:00:00Z,30.2513,-88.0778,28.18,1111122 
DISL,ioos:station:DISL:DISL:1,2012-07-04T12:30:00Z,30.2513,-88.0778,28.46,1111122 
DISL,ioos:station:DISL:DISL:1,2012-07-04T13:00:00Z,30.2513,-88.0778,28.73,1111122 
DISL,ioos:station:DISL:DISL:1,2012-07-04T13:30:00Z,30.2513,-88.0778,28.81,1111122 
DISL,ioos:station:DISL:DISL:1,2012-07-04T14:00:00Z,30.2513,-88.0778,28.92,1111122 
DISL,ioos:station:DISL:DISL:1,2012-07-04T14:30:00Z,30.2513,-88.0778,29.1,1111122 
DISL,ioos:station:DISL:DISL:1,2012-07-04T15:00:00Z,30.2513,-88.0778,29.34,1111122 
DISL,ioos:station:DISL:DISL:1,2012-07-04T15:30:00Z,30.2513,-88.0778,29.67,1111122 
DISL,ioos:station:DISL:DISL:1,2012-07-04T16:00:00Z,30.2513,-88.0778,29.96,1111122 
DISL,ioos:station:DISL:DISL:1,2012-07-04T16:30:00Z,30.2513,-88.0778,30.0,1111122 
DISL,ioos:station:DISL:DISL:1,2012-07-04T17:00:00Z,30.2513,-88.0778,26.41,1111122 
DISL,ioos:station:DISL:DISL:1,2012-07-04T17:30:00Z,30.2513,-88.0778,27.59,1111122 
DISL,ioos:station:DISL:DISL:1,2012-07-04T18:00:00Z,30.2513,-88.0778,28.22,1111122 
DISL,ioos:station:DISL:DISL:1,2012-07-04T18:30:00Z,30.2513,-88.0778,26.31,1111122 
DISL,ioos:station:DISL:DISL:1,2012-07-04T19:00:00Z,30.2513,-88.0778,25.95,1111122 
DISL,ioos:station:DISL:DISL:1,2012-07-04T19:30:00Z,30.2513,-88.0778,26.78,1111122 
DISL,ioos:station:DISL:DISL:1,2012-07-04T20:00:00Z,30.2513,-88.0778,27.18,1111122 
DISL,ioos:station:DISL:DISL:1,2012-07-04T20:30:00Z,30.2513,-88.0778,27.15,1111122 
DISL,ioos:station:DISL:DISL:1,2012-07-04T21:00:00Z,30.2513,-88.0778,26.97,1111122 
DISL,ioos:station:DISL:DISL:1,2012-07-04T21:30:00Z,30.2513,-88.0778,27.58,1111122 
DISL,ioos:station:DISL:DISL:1,2012-07-04T22:00:00Z,30.2513,-88.0778,27.6,1111122 
DISL,ioos:station:DISL:DISL:1,2012-07-04T22:30:00Z,30.2513,-88.0778,27.88,1111122 
DISL,ioos:station:DISL:DISL:1,2012-07-04T23:00:00Z,30.2513,-88.0778,27.95,1111122 
DISL,ioos:station:DISL:DISL:1,2012-07-04T23:30:00Z,30.2513,-88.0778,27.97,1111122 
DISL,ioos:station:DISL:DISL:1,2012-07-05T00:00:00Z,30.2513,-88.0778,27.79,1111122 
DISL,ioos:station:DISL:DISL:1,2012-07-05T00:30:00Z,30.2513,-88.0778,27.6,1111122 
DISL,ioos:station:DISL:DISL:1,2012-07-05T01:00:00Z,30.2513,-88.0778,27.62,1111122 
DISL,ioos:station:DISL:DISL:1,2012-07-05T01:30:00Z,30.2513,-88.0778,27.33,1111122 
DISL,ioos:station:DISL:DISL:1,2012-07-05T02:00:00Z,30.2513,-88.0778,27.34,1111122 
DISL,ioos:station:DISL:DISL:1,2012-07-05T02:30:00Z,30.2513,-88.0778,27.62,1111122 
DISL,ioos:station:DISL:DISL:1,2012-07-05T03:00:00Z,30.2513,-88.0778,28.09,1111122 
DISL,ioos:station:DISL:DISL:1,2012-07-05T03:30:00Z,30.2513,-88.0778,28.31,1111122 
DISL,ioos:station:DISL:DISL:1,2012-07-05T04:00:00Z,30.2513,-88.0778,28.19,1111122 
DISL,ioos:station:DISL:DISL:1,2012-07-05T04:30:00Z,30.2513,-88.0778,28.06,1111122 
DISL,ioos:station:DISL:DISL:1,2012-07-05T05:00:00Z,30.2513,-88.0778,28.36,1111122 
DISL,ioos:station:DISL:DISL:1,2012-07-05T05:30:00Z,30.2513,-88.0778,28.19,1111122 
DISL,ioos:station:DISL:DISL:1,2012-07-05T06:00:00Z,30.2513,-88.0778,28.16,1111122 
DISL,ioos:station:DISL:DISL:1,2012-07-05T06:30:00Z,30.2513,-88.0778,28.18,1111122 
DISL,ioos:station:DISL:DISL:1,2012-07-05T07:00:00Z,30.2513,-88.0778,28.19,1111122 
DISL,ioos:station:DISL:DISL:1,2012-07-05T07:30:00Z,30.2513,-88.0778,28.15,1111122 
DISL,ioos:station:DISL:DISL:1,2012-07-05T08:00:00Z,30.2513,-88.0778,28.12,1111122 
DISL,ioos:station:DISL:DISL:1,2012-07-05T08:30:00Z,30.2513,-88.0778,28.07,1111122 
DISL,ioos:station:DISL:DISL:1,2012-07-05T09:00:00Z,30.2513,-88.0778,27.99,1111122 
DISL,ioos:station:DISL:DISL:1,2012-07-05T09:30:00Z,30.2513,-88.0778,27.87,1111122 
DISL,ioos:station:DISL:DISL:1,2012-07-05T10:00:00Z,30.2513,-88.0778,27.74,1111122 
DISL,ioos:station:DISL:DISL:1,2012-07-05T10:30:00Z,30.2513,-88.0778,27.73,1111122 
DISL,ioos:station:DISL:DISL:1,2012-07-05T11:00:00Z,30.2513,-88.0778,27.64,1111122 
DISL,ioos:station:DISL:DISL:1,2012-07-05T11:30:00Z,30.2513,-88.0778,27.73,1111122 
DISL,ioos:station:DISL:DISL:1,2012-07-05T12:00:00Z,30.2513,-88.0778,27.99,1111122 
DISL,ioos:station:DISL:DISL:1,2012-07-05T12:30:00Z,30.2513,-88.0778,27.95,1111122 
DISL,ioos:station:DISL:DISL:1,2012-07-05T13:00:00Z,30.2513,-88.0778,28.14,1111122 
DISL,ioos:station:DISL:DISL:1,2012-07-05T13:30:00Z,30.2513,-88.0778,28.1,1111122 
DISL,ioos:station:DISL:DISL:1,2012-07-05T14:00:00Z,30.2513,-88.0778,28.19,1111122 
DISL,ioos:station:DISL:DISL:1,2012-07-05T14:30:00Z,30.2513,-88.0778,28.43,1111122 
DISL,ioos:station:DISL:DISL:1,2012-07-05T15:00:00Z,30.2513,-88.0778,28.87,1111122 
DISL,ioos:station:DISL:DISL:1,2012-07-05T15:30:00Z,30.2513,-88.0778,28.72,1111122 
DISL,ioos:station:DISL:DISL:1,2012-07-05T16:00:00Z,30.2513,-88.0778,29.14,1111122 
DISL,ioos:station:DISL:DISL:1,2012-07-05T16:30:00Z,30.2513,-88.0778,29.28,1111122 
DISL,ioos:station:DISL:DISL:1,2012-07-05T17:00:00Z,30.2513,-88.0778,29.91,1111122 
DISL,ioos:station:DISL:DISL:1,2012-07-05T17:30:00Z,30.2513,-88.0778,30.29,1111122 
DISL,ioos:station:DISL:DISL:1,2012-07-05T18:00:00Z,30.2513,-88.0778,30.38,1111122 
DISL,ioos:station:DISL:DISL:1,2012-07-05T18:30:00Z,30.2513,-88.0778,30.5,1111122 
DISL,ioos:station:DISL:DISL:1,2012-07-05T19:00:00Z,30.2513,-88.0778,30.59,1111122 
DISL,ioos:station:DISL:DISL:1,2012-07-05T19:30:00Z,30.2513,-88.0778,30.43,1111122 
DISL,ioos:station:DISL:DISL:1,2012-07-05T20:00:00Z,30.2513,-88.0778,30.86,1111122 
DISL,ioos:station:DISL:DISL:1,2012-07-05T20:30:00Z,30.2513,-88.0778,30.46,1111122 
DISL,ioos:station:DISL:DISL:1,2012-07-05T21:00:00Z,30.2513,-88.0778,30.61,1111122 
DISL,ioos:station:DISL:DISL:1,2012-07-05T21:30:00Z,30.2513,-88.0778,30.52,1111122 
DISL,ioos:station:DISL:DISL:1,2012-07-05T22:00:00Z,30.2513,-88.0778,30.8,1111122 
DISL,ioos:station:DISL:DISL:1,2012-07-05T22:30:00Z,30.2513,-88.0778,30.23,1111122 
DISL,ioos:station:DISL:DISL:1,2012-07-05T23:00:00Z,30.2513,-88.0778,30.49,1111122 
DISL,ioos:station:DISL:DISL:1,2012-07-05T23:30:00Z,30.2513,-88.0778,30.42,1111122 
DISL,ioos:station:DISL:DISL:1,2012-07-06T00:00:00Z,30.2513,-88.0778,30.1,1111122 
DISL,ioos:station:DISL:DISL:1,2012-07-06T00:30:00Z,30.2513,-88.0778,29.85,1111122 
DISL,ioos:station:DISL:DISL:1,2012-07-06T01:00:00Z,30.2513,-88.0778,29.72,1111122 
DISL,ioos:station:DISL:DISL:1,2012-07-06T01:30:00Z,30.2513,-88.0778,29.61,1111122 
DISL,ioos:station:DISL:DISL:1,2012-07-06T02:00:00Z,30.2513,-88.0778,29.52,1111122 
DISL,ioos:station:DISL:DISL:1,2012-07-06T02:30:00Z,30.2513,-88.0778,29.37,1111122 
DISL,ioos:station:DISL:DISL:1,2012-07-06T03:00:00Z,30.2513,-88.0778,29.36,1111122 
DISL,ioos:station:DISL:DISL:1,2012-07-06T03:30:00Z,30.2513,-88.0778,29.17,1111122 
DISL,ioos:station:DISL:DISL:1,2012-07-06T04:00:00Z,30.2513,-88.0778,29.07,1111122 
DISL,ioos:station:DISL:DISL:1,2012-07-06T04:30:00Z,30.2513,-88.0778,29.01,1111122 
DISL,ioos:station:DISL:DISL:1,2012-07-06T05:00:00Z,30.2513,-88.0778,28.96,1111122 
DISL,ioos:station:DISL:DISL:1,2012-07-06T05:30:00Z,30.2513,-88.0778,28.97,1111122 
DISL,ioos:station:DISL:DISL:1,2012-07-06T06:00:00Z,30.2513,-88.0778,28.91,1111122 
DISL,ioos:station:DISL:DISL:1,2012-07-06T06:30:00Z,30.2513,-88.0778,29.04,1111122 
DISL,ioos:station:DISL:DISL:1,2012-07-06T07:00:00Z,30.2513,-88.0778,29.1,1111122 
DISL,ioos:station:DISL:DISL:1,2012-07-06T07:30:00Z,30.2513,-88.0778,29.14,1111122 
DISL,ioos:station:DISL:DISL:1,2012-07-06T08:00:00Z,30.2513,-88.0778,29.04,1111122 
DISL,ioos:station:DISL:DISL:1,2012-07-06T08:30:00Z,30.2513,-88.0778,28.91,1111122 
DISL,ioos:station:DISL:DISL:1,2012-07-06T09:00:00Z,30.2513,-88.0778,28.79,1111122 
DISL,ioos:station:DISL:DISL:1,2012-07-06T09:30:00Z,30.2513,-88.0778,28.62,1111122 
DISL,ioos:station:DISL:DISL:1,2012-07-06T10:00:00Z,30.2513,-88.0778,28.52,1111122 
DISL,ioos:station:DISL:DISL:1,2012-07-06T10:30:00Z,30.2513,-88.0778,28.23,1111122 
DISL,ioos:station:DISL:DISL:1,2012-07-06T11:00:00Z,30.2513,-88.0778,27.34,1111122 
DISL,ioos:station:DISL:DISL:1,2012-07-06T11:30:00Z,30.2513,-88.0778,27.31,1111122 
DISL,ioos:station:DISL:DISL:1,2012-07-06T12:00:00Z,30.2513,-88.0778,27.31,1111122 
DISL,ioos:station:DISL:DISL:1,2012-07-06T12:30:00Z,30.2513,-88.0778,27.29,1111122 
DISL,ioos:station:DISL:DISL:1,2012-07-06T13:00:00Z,30.2513,-88.0778,26.23,1111122 
DISL,ioos:station:DISL:DISL:1,2012-07-06T13:30:00Z,30.2513,-88.0778,25.39,1111122 
DISL,ioos:station:DISL:DISL:1,2012-07-06T14:00:00Z,30.2513,-88.0778,23.4,1111122 
DISL,ioos:station:DISL:DISL:1,2012-07-06T14:30:00Z,30.2513,-88.0778,23.94,1111122 
DISL,ioos:station:DISL:DISL:1,2012-07-06T15:00:00Z,30.2513,-88.0778,25.75,1111122 
DISL,ioos:station:DISL:DISL:1,2012-07-06T15:30:00Z,30.2513,-88.0778,25.74,1111122 
DISL,ioos:station:DISL:DISL:1,2012-07-06T16:00:00Z,30.2513,-88.0778,26.18,1111122 
DISL,ioos:station:DISL:DISL:1,2012-07-06T16:30:00Z,30.2513,-88.0778,25.73,1111122 
DISL,ioos:station:DISL:DISL:1,2012-07-06T17:00:00Z,30.2513,-88.0778,25.88,1111122 
DISL,ioos:station:DISL:DISL:1,2012-07-06T17:30:00Z,30.2513,-88.0778,25.96,1111122 
DISL,ioos:station:DISL:DISL:1,2012-07-06T18:00:00Z,30.2513,-88.0778,25.05,1111122 
DISL,ioos:station:DISL:DISL:1,2012-07-06T18:30:00Z,30.2513,-88.0778,25.9,1111122 
DISL,ioos:station:DISL:DISL:1,2012-07-06T19:00:00Z,30.2513,-88.0778,26.89,1111122 
DISL,ioos:station:DISL:DISL:1,2012-07-06T19:30:00Z,30.2513,-88.0778,27.07,1111122 
DISL,ioos:station:DISL:DISL:1,2012-07-06T20:00:00Z,30.2513,-88.0778,28.0,1111122 
DISL,ioos:station:DISL:DISL:1,2012-07-06T20:30:00Z,30.2513,-88.0778,27.94,1111122 
DISL,ioos:station:DISL:DISL:1,2012-07-06T21:00:00Z,30.2513,-88.0778,27.68,1111122 
DISL,ioos:station:DISL:DISL:1,2012-07-06T21:30:00Z,30.2513,-88.0778,27.93,1111122 
DISL,ioos:station:DISL:DISL:1,2012-07-06T22:00:00Z,30.2513,-88.0778,27.87,1111122 
DISL,ioos:station:DISL:DISL:1,2012-07-06T22:30:00Z,30.2513,-88.0778,28.34,1111122 
DISL,ioos:station:DISL:DISL:1,2012-07-06T23:00:00Z,30.2513,-88.0778,27.99,1111122 
DISL,ioos:station:DISL:DISL:1,2012-07-06T23:30:00Z,30.2513,-88.0778,27.99,1111122 